Regional Weather Roundup
Issued by NWS

Home | Current Version | Previous Version | Graphics & Text | Print | Product List | Glossary On
Versions: 1 2 3 4 5 6 7 8 9 10 11 12 13 14 15 16 17 18 19 20 21 22 23 24 25 26 27 28 29 30 31 32 33 34 35 36 37 38 39 40 41 42 43 44 45 46 47 48 49 50
410
ASUS44 KLIX 310211
RWRLA
LOUISIANA WEATHER ROUNDUP
NATIONAL WEATHER SERVICE NEW ORLEANS LA
900 PM CDT MON MAR 30 2015

NOTE: "FAIR" INDICATES FEW OR NO CLOUDS BELOW 12,000 FEET WITH NO
      SIGNIFICANT WEATHER AND/OR OBSTRUCTIONS TO VISIBILITY.
      SKY/WX - SKY CONDITION AND SIGNIFICANT WEATHER.
      TMP - AIR TEMPERATURE.    DP   - DEWPOINT TEMPERATURE.
      RH  - RELATIVE HUMIDITY.  PRES - PRESSURE.
      HX  - HEAT INDEX.         WCI  - WIND CHILL INDEX.

*  THESE STATIONS ARE NOT NWS OR FAA STATIONS AND ARE NOT UNDER
   NWS QUALITY CONTROL.

LAZ040-048-061>063-065-066-069-310300-
SOUTHEAST LOUISIANA

CITY           SKY/WX    TMP DP  RH WIND       PRES   REMARKS
N.O. AUDUBON     N/A     70  67  92 MISG        N/A
N.O. INTL ARPT CLEAR     71  61  70 SW9       30.15R
N.O. LAKEFRONT CLEAR     75  61  61 SW13      30.15R
SLIDELL        PTCLDY    72  64  76 SW5       30.13R
BATON ROUGE    CLEAR     71  60  68 SW8       30.14R
BOOTHVILLE     CLEAR     72  67  84 SW9       30.17R
BELLE CHASSE   PTCLDY    70  62  76 SW8       30.15R
BOGALUSA*        N/A     69  60  73 CALM      30.14R
GALLIANO*      CLEAR     70  65  82 SW7       30.17R
NEW ROADS*     FAIR      71  58  64 SW6       30.14R
GONZALES*      FAIR      70  63  77 CALM      30.15R
HAMMOND*       CLEAR     73  59  60 W6        30.16R
HOUMA*         CLEAR     68  64  86 CALM      30.16R
PORT FOURCHON* CLEAR     72  66  83 SW5       30.21R

$$

LAZ041-044-053-054-310300-
SOUTHWEST LOUISIANA

CITY           SKY/WX    TMP DP  RH WIND       PRES   REMARKS
LAKE CHARLES   CLEAR     67  64  90 S3        30.14R
LAFAYETTE      CLEAR     68  60  75 SW7       30.15R
PATTERSON      CLEAR     66  61  82 SW5       30.17R
SALT POINT       N/A     67  64  90 CALM      30.15S
NEW IBERIA     CLEAR     67  60  78 S6        30.16R
CHENAULT AIRPK CLEAR     68  64  88 S6        30.15

$$

LAZ027-028-310300-
CENTRAL LOUISIANA

CITY           SKY/WX    TMP DP  RH WIND       PRES   REMARKS
FORT POLK      CLEAR     71  61  70 S8        30.11R
ALEXANDRIA INT CLEAR     72  60  66 S7        30.10R
ALEXANDRIA     CLEAR     71  59  65 SW5       30.12R

$$

LAZ001-002-310300-
NORTHWEST LOUISIANA

CITY           SKY/WX    TMP DP  RH WIND       PRES   REMARKS
SHREVEPORT     PTCLDY    66  62  87 CALM      30.08S
BARKSDALE AFB  MOCLDY    68  62  81 E3        30.09R
DTN SHREVEPORT MOCLDY    67  61  81 CALM      30.09R

$$

LAZ014-016-310300-
NORTHEAST LOUISIANA

CITY           SKY/WX    TMP DP  RH WIND       PRES   REMARKS
MONROE         MOCLDY    68  63  84 CALM      30.11R
TALLULAH       CLEAR     65  61  87 CALM      30.11R

$$




USA.gov is the U.S. government's official web portal to all federal, state and local government web resources and services.